GW2087 Weather Reports


Display with metric or nautical units.
time (UTC)temp
F
wind
direction
speed
MPH
gust
MPH
rain 1hr
in
rain 24hr
in
rain mn
in
humidity
%
barometer
mb
20260507220626 56 317 2.0 5.0 0.00 0.00 0.00 45 1010.3
20260507220124 56 277 1.0 2.0 0.00 0.00 0.00 42 1010.3
20260507215619 57 316 3.0 3.0 0.00 0.00 0.00 41 1010.2
20260507215118 58 297 5.0 6.0 0.00 0.00 0.00 41 1010.2
20260507214614 58 277 1.0 2.0 0.00 0.00 0.00 42 1010.1
20260507214111 58 294 2.0 2.0 0.00 0.00 0.00 44 1010.0
20260507213607 57 324 4.0 5.0 0.00 0.00 0.00 45 1010.0
20260507213104 57 291 2.0 2.0 0.00 0.00 0.00 43 1010.3
20260507212600 57 208 3.0 5.0 0.00 0.00 0.00 47 1010.3
20260507212057 57 204 3.0 6.0 0.00 0.00 0.00 44 1010.1
20260507211554 57 292 5.0 7.0 0.00 0.00 0.00 45 1010.0
20260507211050 57 152 4.0 5.0 0.00 0.00 0.00 44 1010.1
20260507210547 57 318 4.0 6.0 0.00 0.00 0.00 47 1009.7
20260507210044 57 328 5.0 6.0 0.00 0.00 0.00 43 1009.8
20260507205540 58 329 3.0 3.0 0.00 0.00 0.00 43 1010.0
20260507205037 58 311 6.0 8.0 0.00 0.00 0.00 43 1009.7
20260507204533 58 290 1.0 1.0 0.00 0.00 0.00 43 1010.0
20260507204031 59 327 7.0 8.0 0.00 0.00 0.00 41 1010.0
20260507203529 59 212 5.0 6.0 0.00 0.00 0.00 42 1010.0
20260507203026 59 327 6.0 7.0 0.00 0.00 0.00 42 1009.8
20260507202521 59 308 3.0 5.0 0.00 0.00 0.00 42 1009.7
20260507202018 61 295 2.0 3.0 0.00 0.00 0.00 41 1010.0
20260507201514 61 292 5.0 6.0 0.00 0.00 0.00 40 1010.1
20260507201010 61 254 5.0 7.0 0.00 0.00 0.00 43 1010.0
20260507200505 62 359 6.0 8.0 0.00 0.00 0.00 42 1010.2
20260507200001 60 298 3.0 5.0 0.00 0.00 0.00 40 1010.1
20260507194910 60 277 3.0 5.0 0.00 0.00 0.00 37 1010.3
20260507194407 60 277 3.0 5.0 0.00 0.00 0.00 37 1010.3
20260507193903 59 234 3.0 5.0 0.00 0.00 0.00 39 1010.2
20260507193400 60 287 4.0 5.0 0.00 0.00 0.00 38 1010.3
20260507182845 61 232 2.0 2.0 0.00 0.00 0.00 40 1010.8
20260507182341 61 232 2.0 2.0 0.00 0.00 0.00 40 1010.8
20260507181837 61 232 2.0 2.0 0.00 0.00 0.00 40 1010.8
20260507181333 59 262 4.0 5.0 0.00 0.00 0.00 42 1010.7
20260507180830 61 310 10.0 16.0 0.00 0.00 0.00 42 1010.8
20260507180327 61 205 1.0 1.0 0.00 0.00 0.00 39 1010.9
20260507175822 59 243 6.0 7.0 0.00 0.00 0.00 43 1010.8
20260507175320 62 174 2.0 3.0 0.00 0.00 0.00 41 1010.8
20260507174817 63 219 6.0 7.0 0.00 0.00 0.00 40 1010.9
20260507174315 61 273 3.0 6.0 0.00 0.00 0.00 43 1011.0
20260507173812 61 252 3.0 3.0 0.00 0.00 0.00 42 1010.9
20260507173309 59 257 5.0 6.0 0.00 0.00 0.00 43 1011.0
20260507172805 59 257 2.0 3.0 0.00 0.00 0.00 44 1011.1
20260507172306 61 220 3.0 5.0 0.00 0.00 0.00 43 1011.2
20260507171758 60 120 2.0 3.0 0.00 0.00 0.00 42 1011.3
20260507171255 60 232 4.0 5.0 0.00 0.00 0.00 39 1011.2
20260507170752 60 190 9.0 11.0 0.00 0.00 0.00 45 1011.5
20260507170248 58 329 5.0 7.0 0.00 0.00 0.00 44 1011.2
20260507165744 60 248 4.0 6.0 0.00 0.00 0.00 41 1011.4
20260507165241 60 45 3.0 3.0 0.00 0.00 0.00 45 1011.6
20260507164737 58 234 5.0 6.0 0.00 0.00 0.00 45 1011.5
20260507164234 57 223 5.0 7.0 0.00 0.00 0.00 45 1011.6
20260507163731 57 182 5.0 7.0 0.00 0.00 0.00 46 1011.5
20260507163229 56 290 1.0 1.0 0.00 0.00 0.00 46 1011.6
20260507162725 57 301 2.0 3.0 0.00 0.00 0.00 48 1011.8
20260507162221 55 357 4.0 6.0 0.00 0.00 0.00 48 1011.9
20260507161718 55 325 3.0 6.0 0.00 0.00 0.00 48 1012.0
20260507161214 55 220 3.0 3.0 0.00 0.00 0.00 47 1011.7
20260507160710 56 302 8.0 10.0 0.00 0.00 0.00 51 1011.7
20260507160207 56 329 4.0 5.0 0.00 0.00 0.00 48 1011.9
20260507155703 55 260 3.0 3.0 0.00 0.00 0.00 48 1012.0
20260507155159 55 183 3.0 3.0 0.00 0.00 0.00 47 1012.1
20260507154655 55 324 3.0 5.0 0.00 0.00 0.00 48 1012.2
20260507154153 55 320 8.0 9.0 0.00 0.00 0.00 51 1012.1
20260507153649 54 23 2.0 2.0 0.00 0.00 0.00 50 1012.2
20260507153146 54 348 7.0 8.0 0.00 0.00 0.00 50 1012.3
20260507152643 54 324 3.0 5.0 0.00 0.00 0.00 53 1012.1
20260507152138 55 259 2.0 2.0 0.00 0.00 0.00 51 1012.2
20260507151635 53 298 1.0 2.0 0.00 0.00 0.00 53 1012.5
20260507151132 55 324 5.0 6.0 0.00 0.00 0.00 51 1012.5
20260507150629 54 298 3.0 3.0 0.00 0.00 0.00 54 1012.4
20260507150125 55 236 1.0 2.0 0.00 0.00 0.00 51 1012.4
20260507145620 56 191 3.0 3.0 0.00 0.00 0.00 48 1012.4
20260507145118 57 330 5.0 6.0 0.00 0.00 0.00 53 1012.6
20260507144614 55 272 2.0 2.0 0.00 0.00 0.00 51 1012.6
20260507144113 55 257 3.0 5.0 0.00 0.00 0.00 51 1012.6
20260507143609 55 219 3.0 3.0 0.00 0.00 0.00 53 1012.9
20260507143106 54 311 5.0 7.0 0.00 0.00 0.00 54 1013.1
20260507142601 55 278 2.0 5.0 0.00 0.00 0.00 52 1013.1
20260507142059 54 295 2.0 3.0 0.00 0.00 0.00 53 1012.9
20260507141554 55 354 5.0 6.0 0.00 0.00 0.00 57 1013.1
20260507141051 55 270 1.0 2.0 0.00 0.00 0.00 54 1013.0
20260507140548 54 241 5.0 7.0 0.00 0.00 0.00 57 1013.1
20260507140046 53 95 1.0 1.0 0.00 0.00 0.00 59 1013.4
20260507135542 54 321 3.0 3.0 0.00 0.00 0.00 58 1013.3
20260507135040 52 202 4.0 5.0 0.00 0.00 0.00 62 1013.4
20260507134536 53 202 6.0 6.0 0.00 0.00 0.00 61 1013.3
20260507134032 52 331 5.0 8.0 0.00 0.00 0.00 62 1013.3
20260507133528 53 301 1.0 1.0 0.00 0.00 0.00 61 1013.4
20260507133027 52 212 4.0 6.0 0.00 0.00 0.00 62 1013.5
20260507132523 52 233 1.0 1.0 0.00 0.00 0.00 63 1013.5
20260507132019 51 267 4.0 7.0 0.00 0.00 0.00 62 1013.7
20260507131516 51 278 4.0 6.0 0.00 0.00 0.00 62 1013.5
20260507131013 51 233 1.0 1.0 0.00 0.00 0.00 63 1013.5
20260507130510 50 246 3.0 5.0 0.00 0.00 0.00 64 1013.6
20260507130009 49 189 3.0 3.0 0.00 0.00 0.00 65 1013.6
20260507125507 49 214 1.0 2.0 0.00 0.00 0.00 68 1013.6
20260507125003 48 212 1.0 1.0 0.00 0.00 0.00 69 1013.5
20260507124500 49 205 3.0 3.0 0.00 0.00 0.00 67 1013.4
20260507123958 47 215 6.0 7.0 0.00 0.00 0.00 70 1013.5
20260507123455 46 210 1.0 1.0 0.00 0.00 0.00 73 1013.4
20260507122951 48 210 3.0 3.0 0.00 0.00 0.00 70 1013.4
20260507122447 47 216 0.0 1.0 0.00 0.00 0.00 75 1013.7
20260507121943 47 219 0.0 1.0 0.00 0.00 0.00 78 1013.5
20260507121438 45 162 1.0 1.0 0.00 0.00 0.00 80 1013.6
20260507120935 45 223 0.0 0.0 0.00 0.00 0.00 83 1013.5
20260507120431 44 300 1.0 1.0 0.00 0.00 0.00 88 1013.5
20260507115928 43 268 0.0 1.0 0.00 0.00 0.00 95 1013.7
20260507115424 40 306 1.0 1.0 0.00 0.00 0.00 97 1013.7
20260507114920 40 299 0.0 0.0 0.00 0.00 0.00 98 1013.6
20260507114417 38 298 0.0 0.0 0.00 0.00 0.00 99 1013.7
20260507113914 38 298 0.0 0.0 0.00 0.00 0.00 99 1013.6
20260507113411 36 299 0.0 0.0 0.00 0.00 0.00 99 1013.4
20260507112908 35 299 0.0 0.0 0.00 0.00 0.00 99 1013.4
20260507112406 34 299 0.0 0.0 0.00 0.00 0.00 99 1013.3
20260507111904 33 299 0.0 0.0 0.00 0.00 0.00 99 1013.6
20260507111400 33 299 0.0 0.0 0.00 0.00 0.00 99 1013.3
20260507110856 32 299 0.0 0.0 0.00 0.00 0.00 99 1013.4
20260507110352 32 299 0.0 0.0 0.00 0.00 0.00 99 1013.5
20260507105850 32 299 0.0 0.0 0.00 0.00 0.00 99 1013.6
20260507105346 32 299 0.0 0.0 0.00 0.00 0.00 99 1013.5
20260507104843 31 299 0.0 0.0 0.00 0.00 0.00 99 1013.3
20260507104339 31 299 0.0 0.0 0.00 0.00 0.00 99 1013.2
20260507103835 31 299 0.0 0.0 0.00 0.00 0.00 99 1013.4
20260507103332 31 299 0.0 0.0 0.00 0.00 0.00 99 1013.4
20260507102828 31 299 0.0 0.0 0.00 0.00 0.00 99 1013.2
20260507102325 31 299 0.0 0.0 0.00 0.00 0.00 99 1013.1
20260507101822 31 299 0.0 0.0 0.00 0.00 0.00 99 1013.3
20260507101316 31 299 0.0 0.0 0.00 0.00 0.00 99 1013.0
20260507100813 31 299 0.0 0.0 0.00 0.00 0.00 99 1013.1
20260507100312 31 299 0.0 0.0 0.00 0.00 0.00 99 1013.0
20260507095810 31 299 0.0 0.0 0.00 0.00 0.00 99 1013.1
20260507095306 31 299 0.0 0.0 0.00 0.00 0.00 98 1013.0
20260507094803 31 299 0.0 0.0 0.00 0.00 0.00 99 1013.1
20260507094259 32 299 0.0 0.0 0.00 0.00 0.00 98 1013.0
20260507093756 32 299 0.0 0.0 0.00 0.00 0.00 98 1013.1
20260507093255 32 299 0.0 0.0 0.00 0.00 0.00 98 1013.2
20260507092752 32 299 0.0 0.0 0.00 0.00 0.00 98 1013.1
20260507092248 32 299 0.0 0.0 0.00 0.00 0.00 98 1013.1
20260507091745 32 299 0.0 0.0 0.00 0.00 0.00 98 1013.2
20260507091242 33 299 0.0 0.0 0.00 0.00 0.00 98 1013.1
20260507090737 33 299 0.0 0.0 0.00 0.00 0.00 98 1013.2
20260507090234 33 299 0.0 0.0 0.00 0.00 0.00 98 1013.4
20260507085731 33 299 0.0 0.0 0.00 0.00 0.00 98 1013.2
20260507085227 33 299 0.0 0.0 0.00 0.00 0.00 98 1013.2
20260507084725 33 299 0.0 0.0 0.00 0.00 0.00 98 1013.4
20260507084221 33 299 1.0 1.0 0.00 0.00 0.00 98 1013.3
20260507083719 34 299 1.0 1.0 0.00 0.00 0.00 97 1013.1
20260507083215 34 299 0.0 0.0 0.00 0.00 0.00 97 1013.2
20260507082711 34 299 0.0 0.0 0.00 0.00 0.00 97 1013.3
20260507082207 34 299 0.0 0.0 0.00 0.00 0.00 97 1013.3
20260507081704 34 299 0.0 1.0 0.00 0.00 0.00 97 1013.3
20260507081200 34 299 1.0 1.0 0.00 0.00 0.00 97 1013.3
20260507080657 35 299 1.0 1.0 0.00 0.00 0.00 97 1013.5
20260507080153 35 300 1.0 1.0 0.00 0.00 0.00 96 1013.3
20260507075648 35 300 0.0 0.0 0.00 0.00 0.00 97 1013.4
20260507075145 35 300 0.0 0.0 0.00 0.00 0.00 96 1013.5
20260507074641 35 300 0.0 0.0 0.00 0.00 0.00 96 1013.5
20260507074140 35 300 0.0 0.0 0.00 0.00 0.00 96 1013.5
20260507073636 36 300 0.0 0.0 0.00 0.00 0.00 96 1013.5
20260507073132 36 300 1.0 1.0 0.00 0.00 0.00 96 1013.4
20260507072630 36 300 1.0 1.0 0.00 0.00 0.00 96 1013.5
20260507072127 36 300 0.0 1.0 0.00 0.00 0.00 95 1013.4
20260507071625 36 300 0.0 0.0 0.00 0.00 0.00 95 1013.3
20260507071121 36 300 1.0 1.0 0.00 0.00 0.00 95 1013.4
20260507070618 37 300 0.0 0.0 0.00 0.00 0.00 94 1013.4
20260507070115 37 300 0.0 0.0 0.00 0.00 0.00 94 1013.3
20260507065611 37 300 0.0 0.0 0.00 0.00 0.00 94 1013.7
20260507065108 37 300 0.0 0.0 0.00 0.00 0.00 94 1013.5
20260507064606 38 300 1.0 1.0 0.00 0.00 0.00 94 1013.3
20260507064105 38 300 1.0 1.0 0.00 0.00 0.00 93 1013.2
20260507063602 39 300 1.0 1.0 0.00 0.00 0.00 93 1013.4
20260507063059 39 300 0.0 1.0 0.00 0.00 0.00 93 1013.5
20260507062555 40 300 1.0 1.0 0.00 0.00 0.00 91 1013.8
20260507062053 40 301 0.0 0.0 0.00 0.00 0.00 91 1013.6
20260507061550 40 301 0.0 0.0 0.00 0.00 0.00 90 1013.8
20260507061048 40 300 0.0 0.0 0.00 0.00 0.00 90 1013.7
20260507060546 41 300 0.0 0.0 0.00 0.00 0.00 89 1013.5
20260507060042 41 300 0.0 0.0 0.00 0.00 0.00 89 1013.7
20260507055542 42 300 1.0 1.0 0.00 0.00 0.00 89 1013.6
20260507055039 42 300 1.0 1.0 0.00 0.00 0.00 88 1013.7
20260507054535 42 302 1.0 1.0 0.00 0.00 0.00 88 1013.7
20260507054032 42 303 0.0 0.0 0.00 0.00 0.00 87 1013.6
20260507053530 42 303 0.0 0.0 0.00 0.00 0.00 87 1013.7
20260507053029 42 303 0.0 0.0 0.00 0.00 0.00 86 1014.1
20260507052526 43 303 0.0 0.0 0.00 0.00 0.00 86 1014.0
20260507052022 43 303 0.0 0.0 0.00 0.00 0.00 84 1014.0
20260507051520 43 303 0.0 0.0 0.00 0.00 0.00 83 1014.1
20260507051017 43 303 0.0 0.0 0.00 0.00 0.00 82 1014.0
20260507050513 43 303 0.0 0.0 0.00 0.00 0.00 81 1014.1
20260507050010 43 303 0.0 0.0 0.00 0.00 0.00 81 1014.3
20260507045507 43 303 0.0 0.0 0.00 0.00 0.00 84 1014.2
20260507045004 43 303 0.0 0.0 0.00 0.00 0.00 85 1014.2
20260507044501 43 304 0.0 0.0 0.00 0.00 0.00 83 1014.1
20260507043957 44 304 0.0 0.0 0.00 0.00 0.00 86 1014.1
20260507043453 44 304 0.0 0.0 0.00 0.00 0.00 84 1014.3
20260507042950 44 304 0.0 0.0 0.00 0.00 0.00 83 1014.0
20260507042446 44 304 0.0 0.0 0.00 0.00 0.00 81 1014.1
20260507041942 44 304 0.0 0.0 0.00 0.00 0.00 82 1014.1
20260507041439 45 304 0.0 0.0 0.00 0.00 0.00 80 1014.2
20260507040936 45 304 1.0 2.0 0.00 0.00 0.00 75 1014.4
20260507040432 45 303 1.0 2.0 0.00 0.00 0.00 74 1014.4
20260507035928 45 303 0.0 1.0 0.00 0.45 0.45 74 1014.1
20260507035425 45 304 1.0 2.0 0.00 0.45 0.45 74 1014.1
20260507034921 45 303 2.0 2.0 0.00 0.45 0.45 73 1014.1
20260507034418 45 305 2.0 2.0 0.00 0.45 0.45 74 1014.0
20260507033916 45 301 1.0 1.0 0.00 0.45 0.45 73 1013.9
20260507033414 45 290 1.0 2.0 0.00 0.45 0.45 72 1013.9
20260507032911 45 314 1.0 1.0 0.00 0.45 0.45 72 1013.9
20260507032408 45 314 3.0 3.0 0.00 0.45 0.45 73 1014.0
20260507031904 45 315 2.0 2.0 0.00 0.45 0.45 71 1013.9
20260507031401 46 331 1.0 1.0 0.00 0.45 0.45 71 1013.9
20260507030857 45 338 2.0 2.0 0.00 0.45 0.45 71 1013.7
20260507030355 45 313 4.0 5.0 0.00 0.45 0.45 72 1013.9
20260507025851 45 311 2.0 2.0 0.00 0.45 0.45 75 1014.0
20260507025349 45 325 2.0 2.0 0.00 0.45 0.45 74 1013.7
20260507024846 45 317 2.0 2.0 0.00 0.45 0.45 72 1013.7
20260507024343 44 304 3.0 5.0 0.00 0.45 0.45 78 1013.8
20260507023839 43 290 2.0 2.0 0.00 0.45 0.45 84 1013.7
20260507023336 43 291 1.0 1.0 0.00 0.45 0.45 83 1013.6
20260507022834 43 278 0.0 0.0 0.00 0.45 0.45 82 1013.6
20260507022330 44 278 0.0 0.0 0.00 0.45 0.45 83 1013.5
20260507021826 44 313 0.0 0.0 0.00 0.45 0.45 78 1013.5
20260507021322 44 35 0.0 0.0 0.00 0.45 0.45 79 1013.2
20260507020820 44 316 0.0 0.0 0.00 0.45 0.45 78 1013.5
20260507020316 45 316 0.0 0.0 0.00 0.45 0.45 77 1013.4
20260507015813 46 316 0.0 0.0 0.00 0.45 0.45 75 1013.3
20260507015311 46 316 0.0 0.0 0.00 0.45 0.45 74 1013.2
20260507014808 46 76 0.0 0.0 0.00 0.45 0.45 73 1013.1
20260507014304 46 305 0.0 0.0 0.00 0.45 0.45 71 1013.2
20260507013800 47 305 1.0 1.0 0.00 0.45 0.45 72 1013.2
20260507013258 47 112 1.0 1.0 0.00 0.45 0.45 69 1013.1
20260507012755 47 83 0.0 0.0 0.00 0.45 0.45 66 1013.2
20260507012250 47 310 1.0 1.0 0.00 0.45 0.45 67 1013.3
20260507011748 48 310 0.0 1.0 0.00 0.45 0.45 68 1013.1
20260507011245 48 312 0.0 0.0 0.00 0.45 0.45 61 1013.3
20260507010744 48 318 2.0 2.0 0.00 0.45 0.45 60 1013.3
20260507010241 48 293 1.0 1.0 0.00 0.45 0.45 59 1013.3
20260507005738 48 301 1.0 2.0 0.00 0.45 0.45 59 1013.5
20260507005234 48 30 1.0 2.0 0.00 0.45 0.45 60 1013.3
20260507004731 49 331 3.0 3.0 0.00 0.45 0.45 59 1013.5
20260507004229 49 330 6.0 7.0 0.00 0.45 0.45 57 1013.6
20260507003725 49 353 5.0 6.0 0.00 0.45 0.45 58 1013.4
20260507003220 49 350 6.0 7.0 0.00 0.45 0.45 58 1013.4
20260507002717 49 43 3.0 5.0 0.00 0.45 0.45 59 1013.4
20260507002213 49 334 5.0 6.0 0.00 0.45 0.45 60 1013.4
20260507001709 49 27 5.0 7.0 0.00 0.45 0.45 58 1013.4
20260507001207 50 330 5.0 6.0 0.00 0.45 0.45 60 1013.6
20260507000703 50 296 4.0 6.0 0.00 0.45 0.45 61 1013.4
20260507000159 50 325 3.0 3.0 0.00 0.45 0.45 61 1013.4
20260506235656 50 348 3.0 3.0 0.00 0.45 0.45 63 1013.3
20260506235151 50 296 3.0 3.0 0.00 0.45 0.45 61 1013.1
20260506234648 50 295 2.0 2.0 0.00 0.45 0.45 60 1013.1
20260506234145 50 314 4.0 5.0 0.00 0.45 0.45 60 1013.2
20260506233643 50 12 5.0 6.0 0.00 0.45 0.45 61 1013.2
20260506233139 51 317 3.0 3.0 0.00 0.45 0.45 59 1013.0
20260506232636 51 301 3.0 3.0 0.00 0.45 0.45 60 1013.1
20260506232131 51 348 4.0 5.0 0.00 0.45 0.45 58 1012.8
20260506231628 51 351 4.0 5.0 0.00 0.45 0.45 57 1012.6
20260506231127 51 323 4.0 5.0 0.00 0.45 0.45 61 1012.8
20260506230624 51 12 5.0 6.0 0.00 0.45 0.45 57 1012.4
20260506230121 51 330 4.0 5.0 0.00 0.45 0.45 59 1012.3
20260506225617 51 327 3.0 5.0 0.00 0.45 0.45 57 1012.5
20260506225113 51 328 4.0 6.0 0.00 0.45 0.45 57 1012.3
20260506224610 52 306 4.0 5.0 0.00 0.45 0.45 60 1012.1
20260506224107 52 313 5.0 5.0 0.00 0.45 0.45 59 1012.3
20260506223603 52 353 3.0 3.0 0.00 0.45 0.45 59 1012.1
20260506223059 52 333 10.0 11.0 0.00 0.45 0.45 59 1012.0
20260506222556 53 7 4.0 5.0 0.00 0.45 0.45 61 1011.8
20260506222052 53 321 4.0 6.0 0.00 0.45 0.45 59 1012.0
20260506221550 53 279 3.0 5.0 0.00 0.45 0.45 60 1011.9
20260506221048 53 329 7.0 9.0 0.00 0.45 0.45 59 1011.8